TimeEDT,TemperatureF,Dew PointF,Humidity,Sea Level PressureIn,VisibilityMPH,Wind Direction,Wind SpeedMPH,Gust SpeedMPH,PrecipitationIn,Events,Conditions,WindDirDegrees,DateUTC
12:51 AM,73.0,71.1,93,29.98,10.0,Calm,Calm,-,N/A,,Mostly Cloudy,0,2013-07-18 04:51:00
1:19 AM,72.0,71.1,97,29.98,10.0,WSW,5.8,-,N/A,Thunderstorm,Thunderstorm,250,2013-07-18 05:19:00
1:40 AM,73.0,70.0,90,29.96,10.0,SW,5.8,-,N/A,,Scattered Clouds,230,2013-07-18 05:40:00
1:51 AM,73.0,70.0,90,29.95,10.0,WSW,6.9,-,N/A,,Scattered Clouds,250,2013-07-18 05:51:00
2:51 AM,71.1,69.1,93,29.94,10.0,NNW,5.8,-,N/A,,Clear,330,2013-07-18 06:51:00
3:51 AM,71.1,69.1,93,29.93,10.0,NW,4.6,-,N/A,,Clear,310,2013-07-18 07:51:00
4:51 AM,71.1,68.0,90,29.96,10.0,WNW,5.8,-,N/A,,Clear,300,2013-07-18 08:51:00
5:51 AM,71.1,68.0,90,29.97,10.0,Variable,5.8,-,N/A,,Clear,0,2013-07-18 09:51:00
6:51 AM,73.9,70.0,87,29.99,10.0,Variable,3.5,-,N/A,,Clear,0,2013-07-18 10:51:00
7:51 AM,78.1,70.0,76,29.99,10.0,NNW,6.9,-,N/A,,Clear,340,2013-07-18 11:51:00
8:51 AM,80.1,70.0,71,30.00,10.0,North,6.9,-,N/A,,Clear,10,2013-07-18 12:51:00
9:51 AM,82.0,69.1,65,30.01,10.0,North,10.4,-,N/A,,Partly Cloudy,10,2013-07-18 13:51:00
10:51 AM,82.9,70.0,65,30.01,10.0,ENE,9.2,-,N/A,,Scattered Clouds,70,2013-07-18 14:51:00
11:51 AM,82.9,71.1,67,30.00,10.0,East,11.5,-,N/A,,Scattered Clouds,80,2013-07-18 15:51:00
12:51 PM,82.9,70.0,65,30.00,10.0,East,13.8,-,N/A,,Scattered Clouds,80,2013-07-18 16:51:00
1:51 PM,82.0,70.0,67,30.00,10.0,East,15.0,-,N/A,,Partly Cloudy,80,2013-07-18 17:51:00
2:51 PM,81.0,66.9,62,29.99,10.0,South,9.2,-,N/A,,Clear,170,2013-07-18 18:51:00
3:51 PM,78.1,64.0,62,30.01,10.0,South,9.2,-,N/A,,Mostly Cloudy,170,2013-07-18 19:51:00
4:51 PM,77.0,64.9,66,29.97,10.0,South,8.1,-,N/A,,Clear,180,2013-07-18 20:51:00
5:51 PM,75.0,66.0,73,29.97,10.0,South,11.5,-,N/A,,Clear,180,2013-07-18 21:51:00
6:51 PM,73.0,66.9,81,29.97,10.0,SSW,8.1,-,0.00,Rain,Light Rain,200,2013-07-18 22:51:00
7:51 PM,73.0,68.0,84,29.98,10.0,South,4.6,-,0.00,,Clear,190,2013-07-18 23:51:00
8:51 PM,73.0,66.9,81,29.97,10.0,SSW,3.5,-,0.00,,Clear,200,2013-07-19 00:51:00
9:51 PM,73.0,68.0,84,29.99,10.0,Calm,Calm,-,0.00,,Partly Cloudy,0,2013-07-19 01:51:00
10:51 PM,72.0,68.0,87,29.97,10.0,SE,3.5,-,N/A,,Partly Cloudy,140,2013-07-19 02:51:00
11:51 PM,72.0,68.0,87,29.96,10.0,Calm,Calm,-,N/A,,Clear,0,2013-07-19 03:51:00